Location: Sihaung
(22.8641°N, 94.0549°E)
Time: 12:52:11
(UTC+00:00)

NOSS 3-4 (C) - Pass Details

Date: 03 March 2021
Orbit: 873 x 1340 km, 63.4° (Epoch: 15 April)

Event Time Altitude Azimuth Distance (km) Brightness Sun altitude
Exits shadow 22:50:06 - 213° (SSW) 2,788 5.6 -17.6°
Reaches altitude 10° 22:50:49 10° 214° (SSW) 2,521 5.3 -17.4°
Maximum altitude 22:56:33 69° 297° (WNW) 929 3.2 -16.1°
Drops below altitude 10° 23:02:25 10° 21° (NNE) 2,572 6.0 -14.7°
Sets 23:05:00 0° 24° (NNE) 3,555 6.8 -14.1°
